DW5995 Weather Reports


time (UTC)temp
C
wind
direction
speed
KPH
gust
KPH
rain 1hr
cm
rain 24hr
cm
rain mn
cm
humidity
%
barometer
mb
20260507201057 13 297 0.0 0.0 0.00 0.15 0.15 89 1015.6
20260507200557 13 297 0.0 0.0 0.00 0.15 0.15 89 1015.6
20260507200056 13 297 0.0 0.0 0.00 0.15 0.15 88 1015.6
20260507195556 13 297 0.0 0.0 0.00 0.15 0.15 88 1015.5
20260507195056 13 297 0.0 0.0 0.00 0.15 0.15 87 1015.5
20260507194558 13 297 0.0 0.0 0.00 0.15 0.15 87 1015.4
20260507194054 13 297 0.0 0.0 0.00 0.15 0.15 86 1015.4
20260507193553 13 297 0.0 0.0 0.00 0.15 0.15 85 1015.2
20260507193053 13 297 0.0 0.0 0.00 0.15 0.15 85 1015.2
20260507192552 13 297 0.0 0.0 0.00 0.15 0.15 85 1015.1
20260507192051 13 297 0.0 0.0 0.00 0.15 0.15 85 1015.0
20260507191556 13 297 0.0 0.0 0.00 0.15 0.15 83 1014.9
20260507191051 13 297 0.0 1.6 0.00 0.15 0.15 84 1014.9
20260507190550 14 297 0.0 1.6 0.00 0.15 0.15 83 1014.8
20260507190050 14 297 0.0 0.0 0.00 0.15 0.15 83 1014.8
20260507185549 14 297 0.0 0.0 0.00 0.15 0.15 83 1014.8
20260507185052 15 297 0.0 0.0 0.00 0.15 0.15 82 1014.8
20260507184548 15 297 0.0 1.6 0.00 0.15 0.15 81 1014.8
20260507184048 15 297 0.0 1.6 0.00 0.15 0.15 80 1014.7
20260507183545 15 297 0.0 0.0 0.00 0.15 0.15 79 1014.6
20260507183053 16 297 0.0 0.0 0.00 0.15 0.15 78 1014.6
20260507182544 16 297 0.0 0.0 0.00 0.15 0.15 77 1014.4
20260507182043 16 297 0.0 0.0 0.00 0.15 0.15 76 1014.3
20260507181542 17 297 0.0 0.0 0.00 0.15 0.15 74 1014.2
20260507181042 17 297 0.0 0.0 0.00 0.15 0.15 74 1014.1
20260507180544 17 297 0.0 0.0 0.00 0.15 0.15 73 1014.1
20260507180049 17 297 0.0 1.6 0.00 0.15 0.15 71 1014.0
20260507175541 17 297 0.0 1.6 0.00 0.15 0.15 68 1013.9
20260507175041 18 297 0.0 1.6 0.00 0.15 0.15 68 1013.8
20260507174541 18 297 0.0 3.2 0.00 0.15 0.15 67 1013.8
20260507174040 18 296 0.0 3.2 0.00 0.15 0.15 66 1013.7
20260507173543 18 238 0.0 3.2 0.00 0.15 0.15 65 1013.6
20260507173055 19 34 0.0 4.8 0.00 0.15 0.15 65 1013.5
20260507172539 20 22 0.0 4.8 0.00 0.15 0.15 62 1013.4
20260507172040 20 123 0.0 0.0 0.00 0.15 0.15 63 1013.4
20260507171539 20 123 0.0 0.0 0.00 0.15 0.15 61 1013.3
20260507171040 20 123 0.0 1.6 0.00 0.15 0.15 61 1013.2
20260507170540 20 123 0.0 1.6 0.00 0.15 0.15 58 1013.2
20260507170049 21 130 0.0 1.6 0.00 0.15 0.15 58 1013.2
20260507165539 21 130 0.0 1.6 0.00 0.15 0.15 58 1013.3
20260507165039 20 130 0.0 0.0 0.00 0.15 0.15 62 1013.3
20260507164539 20 130 0.0 0.0 0.00 0.15 0.15 60 1013.3
20260507164039 20 130 0.0 1.6 0.00 0.15 0.15 58 1013.2
20260507163539 20 130 0.0 1.6 0.00 0.15 0.15 65 1013.2
20260507163038 19 130 0.0 1.6 0.00 0.15 0.15 69 1013.2
20260507162539 18 130 0.0 0.0 0.00 0.15 0.15 65 1013.1
20260507162038 18 130 0.0 0.0 0.00 0.15 0.15 68 1013.2
20260507161540 18 130 0.0 0.0 0.00 0.15 0.15 72 1013.2
20260507161037 18 130 0.0 0.0 0.00 0.15 0.15 72 1013.1
20260507160536 19 130 0.0 0.0 0.00 0.15 0.15 71 1013.1
20260507160037 19 130 0.0 0.0 0.00 0.15 0.15 69 1013.1
20260507155536 19 130 0.0 0.0 0.00 0.15 0.15 68 1013.1
20260507155040 19 130 0.0 0.0 0.00 0.15 0.15 67 1013.2
20260507154537 19 130 0.0 1.6 0.00 0.15 0.15 66 1013.1
20260507154036 19 130 0.0 3.2 0.00 0.15 0.15 64 1013.0
20260507153536 19 130 0.0 3.2 0.00 0.15 0.15 63 1013.1
20260507153037 19 130 0.0 3.2 0.00 0.15 0.15 67 1013.0
20260507152536 19 128 0.0 3.2 0.00 0.15 0.15 67 1013.0
20260507152036 19 128 0.0 1.6 0.00 0.15 0.15 67 1012.9
20260507151535 19 136 0.0 0.0 0.00 0.15 0.15 65 1012.9
20260507151036 19 136 0.0 1.6 0.00 0.15 0.15 64 1012.9
20260507150535 20 136 0.0 3.2 0.00 0.15 0.15 63 1012.8
20260507150036 20 136 0.0 3.2 0.00 0.15 0.15 55 1012.7
20260507145535 20 137 0.0 4.8 0.00 0.15 0.15 60 1012.7
20260507145035 19 135 0.0 3.2 0.00 0.15 0.15 58 1012.7
20260507144536 18 134 0.0 1.6 0.00 0.15 0.15 68 1012.8
20260507144035 18 134 0.0 3.2 0.00 0.15 0.15 73 1012.8
20260507143534 18 134 0.0 3.2 0.00 0.15 0.15 77 1012.9
20260507143034 17 134 0.0 1.6 0.00 0.15 0.15 75 1012.9
20260507142534 17 134 0.0 1.6 0.00 0.15 0.15 76 1012.9
20260507142033 17 134 0.0 6.4 0.00 0.15 0.15 77 1012.8
20260507141536 17 134 3.2 6.4 0.00 0.15 0.15 78 1012.8
20260507141034 16 30 0.0 8.0 0.00 0.15 0.15 76 1012.8
20260507140536 16 30 0.0 8.0 0.00 0.15 0.15 84 1012.8
20260507140036 16 86 0.0 4.8 0.00 0.15 0.15 85 1013.0
20260507135533 16 101 0.0 3.2 0.00 0.15 0.15 84 1013.1
20260507135034 16 106 0.0 1.6 0.00 0.15 0.15 82 1013.2
20260507134534 16 106 0.0 8.0 0.03 0.15 0.15 81 1013.2
20260507134035 16 117 0.0 4.8 0.03 0.15 0.15 82 1013.2
20260507133533 16 51 0.0 4.8 0.05 0.15 0.15 89 1013.4
20260507133042 16 45 0.0 4.8 0.05 0.15 0.15 88 1013.4
20260507132532 16 45 0.0 6.4 0.08 0.15 0.15 83 1013.4
20260507132033 16 82 0.0 3.2 0.08 0.15 0.15 86 1013.5
20260507131538 16 81 0.0 0.0 0.10 0.15 0.15 92 1013.6
20260507131032 16 81 0.0 1.6 0.10 0.15 0.15 92 1013.6
20260507130531 16 81 0.0 4.8 0.13 0.15 0.15 92 1013.6
20260507130036 16 81 0.0 8.0 0.13 0.15 0.15 91 1013.8
20260507125532 16 118 1.6 6.4 0.13 0.51 0.15 92 1013.9
20260507125032 16 274 0.0 3.2 0.13 0.51 0.15 93 1013.7
20260507124532 15 38 0.0 1.6 0.13 0.48 0.15 89 1013.5
20260507124031 15 38 0.0 1.6 0.13 0.48 0.15 88 1013.5
20260507123531 16 38 0.0 1.6 0.10 0.46 0.13 87 1013.5
20260507123033 16 38 0.0 1.6 0.08 0.43 0.10 86 1013.6
20260507122530 16 38 0.0 0.0 0.05 0.43 0.08 85 1013.6
20260507122029 16 38 0.0 4.8 0.05 0.41 0.05 84 1013.4
20260507121533 17 38 0.0 4.8 0.05 0.41 0.05 82 1013.4
20260507121030 17 42 0.0 4.8 0.05 0.41 0.05 81 1013.4
20260507120529 18 82 0.0 0.0 0.03 0.38 0.05 80 1013.5
20260507120030 18 82 0.0 0.0 0.03 0.38 0.05 78 1013.3
20260507115531 18 82 0.0 0.0 0.03 0.79 0.05 78 1013.2
20260507115028 18 82 0.0 3.2 0.03 0.79 0.05 73 1013.3
20260507114528 18 80 0.0 3.2 0.00 0.76 0.03 67 1013.5
20260507114030 18 19 0.0 4.8 0.00 0.76 0.03 64 1013.4
20260507113529 19 19 0.0 4.8 0.00 0.76 0.03 62 1013.4
20260507113028 19 89 0.0 4.8 0.00 0.76 0.03 62 1013.4
20260507112529 20 173 0.0 8.0 0.00 0.76 0.03 60 1013.4
20260507112028 20 141 1.6 6.4 0.00 0.76 0.03 60 1013.5
20260507111528 20 195 1.6 8.0 0.00 0.76 0.03 59 1013.4
20260507111027 21 118 0.0 8.0 0.00 0.76 0.03 57 1013.3
20260507110526 20 149 0.0 3.2 0.00 0.76 0.03 60 1013.3
20260507110025 20 145 0.0 8.0 0.00 0.76 0.03 59 1013.3
20260507105524 20 138 1.6 8.0 0.00 0.76 0.03 63 1013.5
20260507105023 20 140 1.6 9.7 0.00 0.76 0.03 65 1013.6
20260507104522 20 186 4.8 9.7 0.00 0.76 0.03 63 1013.6
20260507104022 20 176 1.6 9.7 0.00 0.76 0.03 65 1013.5
20260507103523 20 188 1.6 8.0 0.00 0.76 0.03 67 1013.6
20260507103020 20 184 1.6 8.0 0.00 0.76 0.03 66 1013.7
20260507102522 20 173 1.6 8.0 0.00 0.76 0.03 67 1013.7
20260507102019 19 173 1.6 9.7 0.00 0.76 0.03 66 1013.9
20260507101518 19 173 1.6 9.7 0.00 0.76 0.03 69 1013.9
20260507101020 19 133 0.0 9.7 0.00 0.76 0.03 70 1014.0
20260507100518 19 203 0.0 6.4 0.00 0.76 0.03 68 1014.0
20260507100018 19 151 0.0 6.4 0.00 0.76 0.03 66 1014.0
20260507095517 18 151 0.0 6.4 0.00 0.76 0.03 69 1014.0
20260507095017 19 155 0.0 9.7 0.00 0.76 0.03 67 1014.0
20260507094517 19 143 1.6 9.7 0.00 0.76 0.03 68 1014.0
20260507094016 19 117 0.0 6.4 0.00 0.76 0.03 70 1014.0
20260507093518 19 94 0.0 8.0 0.00 0.76 0.03 67 1013.8
20260507093017 19 90 0.0 8.0 0.00 0.76 0.03 72 1013.8
20260507092511 18 173 0.0 4.8 0.00 0.76 0.03 69 1013.9
20260507092011 18 162 0.0 6.4 0.00 0.76 0.03 72 1013.8
20260507091509 18 68 0.0 8.0 0.00 0.76 0.03 76 1013.9
20260507091008 17 164 3.2 8.0 0.00 0.76 0.03 74 1013.9
20260507090507 17 138 0.0 6.4 0.00 0.76 0.03 77 1013.9
20260507090007 17 184 0.0 3.2 0.00 0.76 0.03 76 1013.9
20260507085508 17 184 0.0 3.2 0.00 0.84 0.03 75 1013.9
20260507085010 17 184 0.0 1.6 0.00 0.84 0.03 77 1013.9
20260507084526 17 184 0.0 3.2 0.00 0.84 0.03 77 1013.8
20260507084007 17 184 0.0 3.2 0.00 0.84 0.03 75 1013.9
20260507083509 17 184 0.0 4.8 0.00 0.84 0.03 74 1013.8
20260507083006 17 184 0.0 4.8 0.00 0.84 0.03 76 1013.9
20260507082504 17 184 0.0 4.8 0.00 0.84 0.03 80 1013.8
20260507082003 17 150 0.0 4.8 0.00 0.84 0.03 81 1013.7
20260507081502 17 150 0.0 4.8 0.00 0.84 0.03 82 1013.8
20260507081002 16 221 0.0 1.6 0.00 0.84 0.03 84 1013.9
20260507080600 16 160 0.0 1.6 0.00 0.84 0.03 88 1013.9
20260507080058 16 159 0.0 1.6 0.00 0.84 0.03 87 1013.9
20260507075559 15 159 0.0 4.8 0.00 0.89 0.03 87 1013.9
20260507075059 15 159 0.0 4.8 0.00 0.89 0.03 88 1013.9
20260507074600 15 151 0.0 3.2 0.00 0.89 0.03 91 1013.9
20260507074053 15 151 0.0 3.2 0.00 0.89 0.03 90 1013.8
20260507073553 15 151 0.0 3.2 0.00 0.89 0.03 90 1013.7
20260507073053 15 151 0.0 3.2 0.00 0.89 0.03 91 1013.8
20260507072552 15 151 0.0 1.6 0.00 0.89 0.03 91 1013.7
20260507072055 15 151 0.0 4.8 0.00 0.89 0.03 91 1013.7
20260507071551 15 151 0.0 4.8 0.00 0.89 0.03 91 1013.6
20260507071051 15 137 0.0 4.8 0.00 0.89 0.03 92 1013.5
20260507070550 15 121 0.0 3.2 0.00 0.89 0.03 92 1013.5
20260507065548 15 121 0.0 4.8 0.00 1.75 0.03 95 1013.4
20260507065049 15 121 0.0 3.2 0.00 1.75 0.03 94 1013.4
20260507064553 15 121 0.0 1.6 0.00 1.75 0.03 96 1013.3
20260507064047 14 121 0.0 0.0 0.00 1.75 0.03 97 1013.2
20260507063545 14 121 0.0 0.0 0.00 1.75 0.03 100 1013.2
20260507063043 14 121 0.0 0.0 0.00 1.75 0.03 99 1013.3
20260507062545 13 121 0.0 0.0 0.00 1.75 0.03 99 1013.3
20260507062040 13 121 0.0 0.0 0.00 1.75 0.03 100 1013.3
20260507061538 13 121 0.0 0.0 0.00 1.75 0.03 100 1013.3
20260507061038 13 121 0.0 0.0 0.00 1.75 0.03 99 1013.3
20260507060536 12 121 0.0 0.0 0.00 1.75 0.03 100 1013.3
20260507060040 12 121 0.0 0.0 0.00 1.75 0.03 100 1013.3
20260507055534 12 121 0.0 0.0 0.00 2.29 0.03 100 1013.2
20260507055033 12 121 0.0 1.6 0.00 2.29 0.03 100 1013.2
20260507054545 12 178 0.0 0.0 0.00 2.29 0.03 100 1013.1
20260507054034 12 178 0.0 0.0 0.00 2.29 0.03 100 1013.1
20260507053530 11 178 0.0 0.0 0.00 2.29 0.03 100 1013.0
20260507053029 11 178 0.0 0.0 0.00 2.29 0.03 99 1012.9
20260507052508 11 178 0.0 0.0 0.00 2.29 0.03 99 1012.9
20260507052008 11 178 0.0 0.0 0.00 2.29 0.03 99 1012.9